Location: Hardoni�re
(48.0565°N, 1.0170°W)
Time: 05:01:59
(UTC+00:00)

Daily predictions for brighter satellites

Satellite Brightness Start Highest point End
(mag) Time Altitude Azimuth Time Altitude Azimuth Time Altitude Azimuth
SeaSat 1 2.3 00:02:57 10° NNE 00:07:56 84° ESE 00:08:06 82° SSE
Cosmos 1680 Rocket 4.2 00:03:39 10° NW 00:08:33 41° WSW 00:08:33 41° WSW
Cosmos 1943 Rocket 2.1 00:09:25 67° SSE 00:09:53 71° ESE 00:15:29 10° NNE
ATLAS 2AS CENTAUR R/B 2.7 00:02:59 10° NW 00:10:18 68° WSW 00:11:46 54° S
Cosmos 864 Rocket 4.5 00:04:17 10° NNW 00:10:26 67° W 00:11:30 57° SW
USA 215 3.3 00:10:09 53° SSW 00:10:50 55° SW 00:17:15 10° WNW
Cosmos 2242 Rocket 4.0 00:11:36 55° ENE 00:11:36 55° ENE 00:15:35 10° NNE
Cosmos 1461 4.5 00:15:16 29° E 00:15:16 29° E 00:18:22 10° NE
Cosmos 2181 Rocket 4.2 00:14:49 48° SW 00:16:16 60° WNW 00:22:22 10° N
Cosmos 1937 Rocket 3.4 00:18:25 68° WSW 00:18:54 73° WNW 00:24:05 10° NNE
EO 1 Del DPAF 4.2 00:16:08 10° NNE 00:18:53 42° NE 00:18:53 42° NE
EO 1 Delta rocket 4.2 00:22:19 55° ESE 00:23:00 61° ENE 00:28:21 10° N
SL-16 R/B 4.1 00:21:04 11° ESE 00:26:01 29° ENE 00:31:17 10° N
Cosmos 2297 3.8 00:26:28 53° WSW 00:27:42 68° WNW 00:33:24 10° NNE
Cosmos 2084 Rocket 3.6 00:24:01 10° NW 00:27:54 71° N 00:27:54 71° N
Okean 1-7 3.1 00:29:25 69° NE 00:29:25 69° NE 00:33:16 10° NNE
CZ-4C R/B 4.3 00:23:32 10° WNW 00:29:04 22° WSW 00:29:35 22° WSW
Gbstr 26 Del rocket 3.8 00:28:26 10° WNW 00:35:23 82° NNE 00:40:57 10° ESE
Okean 2 Rocket 4.5 00:32:19 10° N 00:36:14 30° ENE 00:37:10 28° E
Cosmos 1821 Rocket 4.0 00:32:28 10° N 00:38:54 86° W 00:40:28 55° S
Cosmos 2344 4.5 00:31:14 10° NW 00:40:10 70° NE 00:52:37 10° SE
Helios 1A 3.3 00:41:18 57° ENE 00:41:23 57° ENE 00:45:29 10° N
Okean 3 3.9 00:41:55 56° E 00:41:55 56° E 00:45:53 10° NNE
Cosmos 1656 Rocket 4.1 00:42:15 43° SE 00:42:45 45° ESE 00:47:59 10° NE
ISS -0.8 00:48:19 11° E 00:48:19 11° E 00:48:31 10° E
Cosmos 2150 Rocket 4.4 00:45:19 48° SE 00:45:55 51° ESE 00:51:04 10° NNE
SJ 16-02 4.2 00:48:59 10° WNW 00:49:58 11° NW 00:50:56 10° NNW
Cosmos 1934 Rocket 4.1 00:44:23 10° N 00:50:35 69° E 00:52:36 43° SSE
Cosmos 44 4.1 00:45:29 10° NW 00:50:00 42° W 00:50:00 42° W
Cosmos 1908 Rocket 4.4 00:46:48 10° NNW 00:50:33 39° WNW 00:50:33 39° WNW
RESURS DK-1 3.0 00:47:54 10° NNW 00:51:59 50° NE 00:52:35 46° E
Cosmos 1867 4.2 00:52:08 40° SE 00:52:28 40° ESE 00:57:35 10° NE
Cosmos 2082 Rocket 4.2 00:50:49 10° WNW 00:52:54 13° W 00:52:54 13° W
SL-24 R/B 4.3 00:54:09 70° SSE 00:54:44 86° ENE 00:59:14 10° NNW
Meteor 1-12 Rocket 4.2 00:49:16 10° NNW 00:55:14 84° WSW 00:56:29 57° S
CZ-2D R/B 3.5 00:51:57 10° NNE 00:56:42 30° E 00:58:21 25° SE
ATLAS CENTAUR R/B 3.2 01:02:36 18° E 01:02:36 18° E 01:04:27 10° ENE
Cosmos 1300 Rocket 3.7 00:57:25 10° N 01:01:51 67° E 01:02:12 63° ESE
ERBS 4.3 01:02:48 10° NW 01:04:15 23° NW 01:04:15 23° NW
SL-27 R/B 3.5 01:04:04 10° NNW 01:06:28 42° N 01:06:28 42° N
Cosmos 468 4.4 01:03:53 10° NNW 01:09:11 72° WSW 01:09:51 63° SSW
Cosmos 2221 Rocket 4.0 01:08:51 51° ESE 01:09:23 54° E 01:13:51 10° NNE
Meteor 1-13 Rocket 4.1 01:09:25 57° SSW 01:10:35 77° WNW 01:16:10 10° N
USA 281 3.1 01:09:03 40° SSE 01:11:39 80° WSW 01:18:16 10° NNW
USA 81 4.2 01:08:06 10° N 01:13:24 67° E 01:14:57 45° SSE
PSLV R/B 4.4 01:09:19 10° N 01:13:29 38° WNW 01:13:52 37° W
Nadezhda 3 Rocket 4.2 01:13:48 44° SW 01:15:33 58° WNW 01:21:44 10° N
CZ-4 R/B 3.8 01:17:15 10° NNE 01:22:12 78° WNW 01:23:00 61° SW
Cosmos 1805 3.3 01:20:38 10° NNW 01:24:13 68° NW 01:24:13 68° NW
MOZ.5/SAFIR/RUBIN 5/SL-8 3.6 01:24:37 66° S 01:25:14 81° WSW 01:29:54 10° NNW
Cosmos 1125 Rocket 3.4 01:24:54 57° SSW 01:25:59 85° ESE 01:31:15 10° NNE
Cosmos 1766 3.2 01:22:16 10° N 01:26:17 79° ENE 01:26:23 78° ESE
Cosmos 1400 Rocket 3.9 01:25:38 10° N 01:29:35 42° ENE 01:31:00 31° ESE
Resurs 1-4 Rocket 2.4 01:25:52 10° NNE 01:31:03 56° E 01:32:45 39° SSE
Cosmos 2369 Rocket 2.6 01:31:09 37° WSW 01:32:59 53° WNW 01:38:32 10° NNE
ADEOS II 3.6 01:28:53 10° NE 01:33:25 29° E 01:36:09 19° SE
Meteor 1-23 Rocket 4.2 01:35:38 46° SSW 01:37:27 82° WNW 01:43:18 10° N
Cosmos 494 Rocket 4.1 01:34:55 10° NNW 01:39:59 53° WSW 01:40:39 49° SW
Cosmos 1733 3.4 01:36:22 10° NNW 01:39:44 55° WNW 01:39:44 55° WNW
Cosmos 1605 Rocket 3.9 01:37:35 10° NNW 01:43:47 77° W 01:46:26 37° S
Gblst 52 Del rocket 4.2 01:37:30 10° WNW 01:43:49 67° SSW 01:49:26 10° SE
Sich 1 Rocket 4.2 01:40:12 10° NNW 01:44:30 41° W 01:44:40 41° W
SeaSat 1 4.4 01:41:17 10° N 01:44:55 21° NW 01:47:53 13° W
Lacrosse 5 3.7 01:45:07 16° SE 01:46:14 18° ESE 01:49:33 10° E
Cosmos 1470 3.5 01:45:13 10° N 01:49:01 49° ENE 01:50:26 32° SE
Cosmos 1378 Rocket 3.7 01:51:10 47° SSE 01:52:17 69° E 01:56:37 10° NNE
Cosmos 1461 4.0 01:51:36 32° W 01:53:13 44° NW 01:57:39 10° NNE
Cosmos 1943 Rocket 3.8 01:50:54 15° W 01:54:11 25° NW 01:58:46 10° N
NOSS 2-1 (E) 4.5 01:49:43 10° NW 01:54:35 70° NE 02:01:28 10° SE
BREEZE-M DEB (TANK) 4.4 01:53:33 21° SSE 01:55:46 28° ESE 02:05:24 10° ENE
Cosmos 1269 Rocket 3.9 01:53:16 10° NNW 01:58:37 86° WSW 02:01:40 26° SSE
Okean 1 Rocket 3.1 01:54:12 10° N 01:58:38 77° ENE 02:00:21 37° SSE
Cosmos 1607 4.1 01:55:38 34° SW 01:58:39 74° NW 02:05:11 10° NE
ATLAS 2AS CENTAUR R/B 4.4 01:56:18 10° WNW 01:59:11 14° W 01:59:11 14° W
Cosmos 2173 Rocket 4.5 01:54:46 10° N 02:00:49 58° ENE 02:06:41 11° SSE
Cosmos 1726 2.5 01:59:36 10° N 02:03:18 61° ENE 02:04:34 37° SE
Aureole 2 4.4 02:00:28 10° NNW 02:03:24 61° ENE 02:03:37 58° E
Cosmos 44 Rocket 3.4 01:58:39 10° NW 02:03:56 85° NE 02:09:04 10° SE
COSMOS 2455 3.9 01:59:05 10° NNW 02:04:53 47° NE 02:10:40 10° ESE
Meteor 2-20 4.4 02:04:50 32° S 02:07:55 87° W 02:14:08 10° N
SL-16 R/B 2.6 02:06:09 30° S 02:09:14 61° WSW 02:15:28 10° NNW
Meteor 1-28 Rocket 4.3 02:07:32 16° SE 02:10:07 42° ENE 02:13:39 10° N
Cosmos 1842 3.2 02:10:36 54° SW 02:11:14 65° W 02:15:06 10° N
Meteor 1-29 2.9 02:09:28 10° NNE 02:12:50 73° ESE 02:13:24 56° SSE
Meteor 1-22 Rocket 4.5 02:07:49 10° NNW 02:13:35 58° W 02:16:24 31° SSW
Cosmos 2151 Rocket 4.2 02:09:27 10° NNW 02:13:39 38° W 02:14:19 36° WSW
Okean 2 Rocket 4.1 02:10:27 10° NNW 02:14:15 29° W 02:14:31 29° W
NPP 3.6 02:10:07 10° NNE 02:15:32 79° WNW 02:18:04 33° SSW
Cosmos 1674 Rocket 3.7 02:14:49 42° SW 02:16:04 59° WNW 02:20:29 10° N
Cosmos 2100 Rocket 4.1 02:10:02 10° N 02:16:19 79° E 02:21:53 14° SSE
Cosmos 2227 Rocket 3.8 02:12:03 10° NNW 02:17:14 35° NE 02:22:23 10° ESE
Okean 2 3.3 02:19:01 43° SSW 02:20:20 77° W 02:24:32 10° N
Cosmos 1953 3.9 02:16:55 10° N 02:20:33 33° ENE 02:24:11 10° SE
Cosmos 2297 Rocket 3.3 02:16:07 10° NNW 02:21:35 46° NE 02:27:01 10° SE
Helios 1B rocket 2.8 02:17:37 10° N 02:21:37 50° WNW 02:22:49 37° WSW
Gbstr 26 Del rocket 4.0 02:16:27 10° WNW 02:22:08 37° SW 02:26:08 14° SSE
Landsat 4 3.6 02:18:24 10° NNE 02:22:10 82° WNW 02:23:14 45° SSW
ISS -3.5 02:21:15 43° W 02:22:10 67° NNW 02:25:33 10° ENE
AQUA 3.8 02:17:36 10° NNE 02:22:23 80° WNW 02:24:31 33° SSW
DELTA 2 DEB (DPAF) 4.1 02:21:24 23° SSE 02:24:10 89° WSW 02:28:40 10° NNW
BREEZE-M R/B 4.0 02:21:30 19° W 02:24:23 45° SSW 02:32:24 10° SE
RESURS DK-1 4.2 02:26:44 10° WNW 02:28:26 17° W 02:28:26 17° W
ADEOS Rocket 3.6 02:23:54 10° SSE 02:31:05 84° ENE 02:38:52 10° NNW
UNK 4.4 02:31:50 31° SW 02:32:53 35° W 02:37:06 10° NNW
COSMOS 2487 2.8 02:31:12 10° NW 02:34:24 41° WSW 02:34:28 41° WSW
Spot 1 4.5 02:30:09 10° SSE 02:34:36 71° ENE 02:39:23 10° N
Cosmos 1867 4.4 02:32:47 21° WSW 02:36:04 43° NW 02:41:19 10° NNE
CZ-2D R/B 2.7 02:31:44 10° N 02:36:55 45° WNW 02:39:40 25° SW
ATLAS CENTAUR R/B 1.8 02:38:44 28° W 02:40:12 44° NW 02:43:54 10° NNE
[s.n.48335] 3.6 02:41:23 31° SE 02:41:23 31° SE 02:42:57 10° SE
[s.n.48334] 3.5 02:41:26 31° SE 02:41:26 31° SE 02:43:01 10° SE
[s.n.48333] 3.8 02:41:41 26° SE 02:41:41 26° SE 02:43:02 10° SE
[s.n.48332] 3.5 02:41:30 31° SE 02:41:30 31° SE 02:43:05 10° SE
[s.n.48331] 3.5 02:41:39 31° SE 02:41:39 31° SE 02:43:14 10° SE
[s.n.48330] 3.8 02:41:54 27° SE 02:41:54 27° SE 02:43:16 10° SE
[s.n.48329] 3.5 02:41:48 31° SE 02:41:48 31° SE 02:43:22 10° SE
[s.n.48328] 3.8 02:42:01 27° SE 02:42:01 27° SE 02:43:23 10° SE
[s.n.48327] 3.8 02:42:04 27° SE 02:42:04 27° SE 02:43:27 10° SE
[s.n.48326] 3.6 02:42:01 30° SE 02:42:01 30° SE 02:43:33 10° SE
NOSS 2-1 (C) 4.3 02:36:17 10° NW 02:41:11 58° SW 02:48:05 10° SSE
Cosmos 1727 Rocket 4.3 02:39:13 25° SW 02:42:52 54° WNW 02:49:06 10° N
[s.n.48324] 3.5 02:44:12 32° SSE 02:44:12 32° SSE 02:45:49 10° SE
[s.n.48325] 3.3 02:44:48 35° SSE 02:44:48 35° SSE 02:46:35 10° SE
[s.n.48323] 3.5 02:45:06 30° SSE 02:45:06 30° SSE 02:46:40 10° SE
ARIANE 5 R/B 3.8 02:39:19 10° NNE 02:44:08 37° E 02:48:51 10° SSE
[s.n.48321] 3.5 02:45:16 31° SSE 02:45:16 31° SSE 02:46:51 10° SE
[s.n.48320] 3.4 02:45:17 32° SSE 02:45:17 32° SSE 02:46:54 10° SE
[s.n.48322] 3.2 02:45:11 36° SSE 02:45:11 36° SSE 02:46:59 10° SE
[s.n.48319] 3.5 02:45:26 30° SSE 02:45:26 30° SSE 02:47:00 10° SE
[s.n.48318] 3.5 02:45:26 30° SSE 02:45:26 30° SSE 02:47:00 10° SE
[s.n.48317] 3.5 02:45:35 30° SSE 02:45:35 30° SSE 02:47:08 10° SE
[s.n.48316] 3.5 02:45:37 30° SSE 02:45:37 30° SSE 02:47:12 10° SE
[s.n.48315] 3.5 02:45:43 31° SSE 02:45:43 31° SSE 02:47:18 10° SE
[s.n.48314] 3.5 02:45:46 31° SSE 02:45:46 31° SSE 02:47:22 10° SE
[s.n.48313] 3.5 02:45:52 31° SSE 02:45:52 31° SSE 02:47:27 10° SE
[s.n.48312] 3.5 02:45:56 31° SSE 02:45:56 31° SSE 02:47:30 10° SE
[s.n.48311] 3.5 02:46:00 31° SSE 02:46:00 31° SSE 02:47:35 10° SE
Cosmos 1455 Rocket 3.2 02:40:44 10° N 02:45:05 75° ENE 02:49:25 10° SSE
[s.n.48310] 3.2 02:45:50 37° SSE 02:45:50 37° SSE 02:47:41 10° SE
[s.n.48309] 3.2 02:45:54 37° SSE 02:45:54 37° SSE 02:47:45 10° SE
[s.n.48308] 3.2 02:45:59 37° SSE 02:45:59 37° SSE 02:47:49 10° SE
[s.n.48307] 3.4 02:46:13 32° SSE 02:46:13 32° SSE 02:47:51 10° SE
[s.n.48306] 3.3 02:46:13 33° SSE 02:46:13 33° SSE 02:47:56 10° SE
[s.n.48305] 3.3 02:46:18 34° SSE 02:46:18 34° SSE 02:48:01 10° SE
[s.n.48304] 3.4 02:46:26 32° SSE 02:46:26 32° SSE 02:48:04 10° SE
[s.n.48303] 3.3 02:46:27 34° SSE 02:46:27 34° SSE 02:48:10 10° SE
[s.n.48302] 3.3 02:46:30 34° SSE 02:46:30 34° SSE 02:48:14 10° SE
[s.n.48301] 3.4 02:46:39 32° SSE 02:46:39 32° SSE 02:48:18 10° SE
[s.n.48300] 3.4 02:46:40 32° SSE 02:46:40 32° SSE 02:48:20 10° SE
[s.n.48299] 3.4 02:46:47 32° SSE 02:46:47 32° SSE 02:48:27 10° SE
[s.n.48298] 3.3 02:46:46 34° SSE 02:46:46 34° SSE 02:48:32 10° SE
[s.n.48297] 3.1 02:46:44 38° SSE 02:46:44 38° SSE 02:48:38 10° SE
[s.n.48296] 3.1 02:46:48 38° SSE 02:46:48 38° SSE 02:48:42 10° SE
[s.n.48295] 3.3 02:47:03 33° SSE 02:47:03 33° SSE 02:48:45 10° SE
[s.n.48294] 3.3 02:47:08 33° SSE 02:47:08 33° SSE 02:48:49 10° SE
[s.n.48293] 3.3 02:47:12 33° SSE 02:47:12 33° SSE 02:48:53 10° SE
[s.n.48292] 3.0 02:47:00 40° SSE 02:47:00 40° SSE 02:48:59 10° SE
[s.n.48291] 3.3 02:47:20 33° SSE 02:47:20 33° SSE 02:49:01 10° SE
[s.n.48290] 3.3 02:47:22 33° SSE 02:47:22 33° SSE 02:49:03 10° SE
[s.n.48289] 3.3 02:47:28 33° SSE 02:47:28 33° SSE 02:49:11 10° SE
[s.n.48288] 3.3 02:47:32 33° SSE 02:47:32 33° SSE 02:49:14 10° SE
[s.n.48286] 3.3 02:47:33 33° SSE 02:47:33 33° SSE 02:49:15 10° SE
[s.n.48287] 3.3 02:47:36 33° SSE 02:47:36 33° SSE 02:49:18 10° SE
[s.n.48285] 3.3 02:47:45 33° SSE 02:47:45 33° SSE 02:49:29 10° SE
[s.n.48284] 3.3 02:47:48 34° SSE 02:47:48 34° SSE 02:49:31 10° SE
[s.n.48283] 3.3 02:47:53 34° SSE 02:47:53 34° SSE 02:49:37 10° SE
[s.n.48282] 3.2 02:47:56 35° SSE 02:47:56 35° SSE 02:49:42 10° SE
[s.n.48281] 3.0 02:47:49 40° SSE 02:47:49 40° SSE 02:49:49 10° SE
[s.n.48280] 3.3 02:48:05 34° SSE 02:48:05 34° SSE 02:49:51 10° SE
[s.n.48279] 3.3 02:48:09 34° SSE 02:48:09 34° SSE 02:49:55 10° SE
[s.n.48278] 3.2 02:48:11 35° SSE 02:48:11 35° SSE 02:49:59 10° SE
[s.n.48277] 3.3 02:48:18 34° SSE 02:48:18 34° SSE 02:50:04 10° SE
[s.n.48276] 3.1 02:48:17 38° SSE 02:48:17 38° SSE 02:50:13 10° SE
NOSS 2-1 (D) 4.4 02:43:01 10° NW 02:47:54 53° SW 02:54:45 10° SSE
CZ-4C R/B 3.5 02:45:50 12° SSE 02:49:50 81° WSW 02:54:09 10° NNW
Cosmos 1758 3.6 02:46:37 10° NNW 02:50:36 51° W 02:52:44 24° SSW
In-Cosmos 22 4.2 02:48:04 17° S 02:52:31 87° E 02:58:08 10° NNE
Cosmos 2219 3.6 02:47:02 10° NNW 02:52:44 67° ENE 02:58:25 10° SE
Meteor 2-11 Rocket 4.4 02:48:50 10° NNW 02:55:01 78° W 03:01:10 10° S
KORONAS-FOTON 4.2 02:52:13 17° S 02:55:10 65° E 02:59:04 10° NNE
Cosmos 1707 3.1 02:56:07 27° SW 02:57:50 45° WNW 03:01:33 10° N
Cosmos 1674 2.8 02:56:39 17° S 02:59:30 73° E 03:03:21 10° NNE
Cosmos 1315 Rocket 2.8 02:57:37 10° NNW 03:01:30 57° W 03:04:35 16° S
USA 129 4.1 03:03:28 10° SE 03:05:35 26° ENE 03:07:27 10° NNE
Cosmos 1400 Rocket 4.4 03:02:50 10° NW 03:05:43 19° W 03:06:35 18° WSW
CBERS-1 4.0 03:03:08 10° N 03:08:13 69° WNW 03:12:17 16° SSW
IDEFIX/ARIANE 42P 2.6 03:04:02 10° NNE 03:09:19 87° WNW 03:14:08 13° SSW
Timation 2 Rocket 3.9 03:03:31 10° NNW 03:09:33 86° ENE 03:15:33 10° SSE
Cosmos 2061 Rocket 4.0 03:03:41 10° NNW 03:09:57 73° W 03:16:16 10° S
Resurs 1-4 Rocket 3.5 03:06:21 10° N 03:10:31 24° WNW 03:13:50 14° WSW
TSX-5 4.4 03:09:18 10° NNW 03:12:29 51° ENE 03:16:07 10° SE
ADEOS II 2.6 03:08:17 10° N 03:13:16 45° WNW 03:17:06 16° SW
Cosmos 614 Rocket 3.9 03:10:20 10° NNW 03:15:26 88° WSW 03:20:33 10° SSE
USA 276 3.8 03:14:03 15° S 03:15:40 22° SE 03:18:13 10° E
Cosmos 1908 3.1 03:12:27 10° NNW 03:16:19 71° W 03:20:11 10° S
Cosmos 1975 Rocket 3.3 03:13:31 17° SSW 03:16:40 53° WNW 03:20:58 10° N
Cosmos 1725 Rocket 4.0 03:10:50 10° NNW 03:17:07 71° W 03:23:17 10° S
Cosmos 2369 Rocket 4.4 03:15:30 10° WNW 03:18:24 14° NNW 03:21:20 10° N
Tianhe-1 2.4 03:18:36 20° SSW 03:19:40 24° S 03:22:16 10° SE
Meteor 1-16 Rocket 4.4 03:14:12 10° NNW 03:20:05 66° W 03:25:55 10° S
BREEZE-M DEB (TANK) 3.6 03:19:51 13° SSW 03:21:42 18° SSE 03:23:29 10° ESE
Cosmos 407 Rocket 4.2 03:17:24 10° NNW 03:22:42 61° ENE 03:27:59 10° SE
SL-14 R/B 4.1 03:21:12 10° S 03:24:57 51° E 03:28:46 10° NNE
Cosmos 1656 3.7 03:20:47 12° SSW 03:25:49 84° ESE 03:31:22 10° NNE
Lacrosse 5 1.9 03:24:19 15° SW 03:28:33 81° SE 03:33:39 10° NE
SL-08 R/B 3.2 03:24:19 10° S 03:29:04 74° WSW 03:33:46 10° NNW
IRS-1C 4.2 03:29:03 10° N 03:34:23 71° WNW 03:39:41 10° SSW
Cosmos 2233 Rocket 4.0 03:30:16 10° NNW 03:36:31 76° W 03:42:40 10° S
Cosmos 2016 Rocket 4.4 03:31:23 10° NNW 03:37:17 44° W 03:43:06 10° SSW
Cosmos 1726 4.3 03:36:56 10° WNW 03:37:55 11° W 03:38:54 10° W
Cosmos 2251 Rocket 3.8 03:32:59 10° NW 03:37:58 44° WSW 03:42:54 10° S
MSX 3.9 03:35:08 10° N 03:40:53 70° WNW 03:46:37 10° SSW
CZ-4B R/B 3.5 03:36:59 10° N 03:41:50 68° WNW 03:46:48 10° SSW
Iridium 2 3.6 03:41:15 10° S 03:45:03 75° W 03:48:52 10° N
Cosmos 1697 Rocket 3.0 03:43:32 10° SSW 03:49:06 68° ESE 03:54:41 10° NNE
COSMOS 2455 3.3 03:45:13 10° NW 03:50:46 39° WSW 03:56:16 10° S
Cosmos 1626 2.4 03:48:47 10° SSW 03:52:21 48° WNW 03:55:58 10° N
PAYLOAD A 4.2 03:47:46 10° NNE 03:52:38 70° ESE 03:57:19 10° S
SL-16 R/B 4.4 03:53:46 10° W 03:54:07 10° W 03:54:28 10° W
GP-B 4.0 03:52:44 10° NNW 03:56:41 32° W 04:00:36 10° SW
APEX 3.7 03:52:42 10° NNW 03:56:45 89° ENE 04:01:51 10° SSE
Cosmos 1953 3.6 03:53:41 10° NW 03:56:45 22° W 03:59:49 10° SW
Cosmos 1980 Rocket 3.3 03:52:39 10° S 03:58:00 44° ESE 04:03:22 10° NE
CZ-2C R/B 2.8 03:53:20 10° NNE 03:58:23 75° ESE 04:03:31 10° S
Cosmos 304 Rocket 3.8 03:53:42 10° SSW 03:58:30 87° WNW 04:03:20 10° NNE
Cosmos 2369 4.2 03:52:58 10° SSW 03:58:36 62° ESE 04:04:17 10° NNE
ISS -2.6 03:56:02 10° WNW 03:59:18 43° N 04:02:33 10° ENE
Cosmos 2227 Rocket 2.5 03:56:04 10° NW 04:01:26 45° WSW 04:06:45 10° S
Timation 1 Rocket 4.4 03:55:48 10° NW 04:01:43 65° WSW 04:07:37 10° SSE
Meteor 2-5 Rocket 3.8 03:57:53 10° S 04:03:41 88° W 04:09:24 10° NNE
Cosmos 2297 Rocket 2.9 04:00:28 10° NW 04:05:29 33° WSW 04:10:28 10° SSW
USA 234 4.3 03:59:48 10° ENE 04:05:56 41° SE 04:12:00 10° SSW
